Temp
26 25 25 24 22 20 21 24 22 24 26 27 27 27 25 25 25 21 24 24 24 24 23 22 21 21 21 21 21 21 22 22 21 21 21 21 21 21 20 20 20 19 19 19 18 18 18 18 17
26 26 25 25 21 22 24 23 21 22 24 27 27 27 26 24 23 23 22 22 24 25 23 22 22 22 22 22 22 22 22 21 21 21 21 21 21 21 20 20 20 19 19 19 18 18 18 18 17
26 26 25 20 19 23 22 23 24 24 24 25 26 26 25 23 23 23 23 23 24 25 23 22 22 22 22 22 22 22 21 21 21 21 21 21 21 21 20 20 19 19 19 19 18 18 18 18 18
26 26 25 22 24 24 28 24 26 26 27 26 26 23 25 25 25 24 24 24 25 25 23 22 22 22 22 22 22 22 21 21 21 21 21 21 21 20 20 20 19 19 19 18 18 18 18 18 18
25 25 20 22 23 26 24 25 24 23 25 26 28 24 24 25 25 24 24 24 25 24 23 22 22 22 22 21 21 21 21 21 21 21 21 21 21 20 20 20 19 19 19 19 18 18 18 18 18
26 24 21 21 23 27 22 23 24 24 25 26 26 25 24 24 25 24 24 24 24 25 24 23 22 22 22 21 21 21 21 21 21 21 21 21 21 20 20 20 19 19 19 19 19 19 19 18 18
24 19 21 23 23 26 22 23 24 23 25 27 28 23 24 24 25 24 24 24 24 24 24 23 22 22 21 21 21 21 21 21 21 21 21 21 20 20 20 19 19 20 20 19 20 19 19 19 19
26 20 23 23 23 24 24 23 23 24 24 26 26 24 23 24 24 25 24 24 25 24 24 24 23 22 22 22 21 21 21 21 21 21 21 21 21 20 20 20 20 20 20 20 20 20 20 20 19
26 20 21 23 25 25 23 21 23 24 25 25 25 26 26 26 24 24 24 23 23 23 24 24 24 23 22 22 22 22 22 22 22 22 21 21 21 21 20 20 20 20 20 20 20 20 19 19 19
24 19 23 24 26 26 25 23 23 23 22 24 26 26 26 25 25 25 24 23 23 24 24 24 24 24 23 23 22 22 22 22 22 22 22 21 21 21 20 20 19 19 20 20 20 20 20 19 19
24 22 24 26 28 29 25 24 24 23 21 26 28 27 26 26 25 25 24 25 25 24 24 24 24 24 24 23 23 23 22 22 22 22 22 22 22 21 20 20 19 19 19 19 20 20 20 20 19
24 26 26 28 28 30 29 26 24 24 27 29 29 28 27 26 25 24 25 24 25 25 25 24 24 24 23 23 22 21 22 22 22 22 22 22 22 21 20 20 19 19 19 19 19 19 20 20 19
23 25 27 28 28 29 31 29 25 25 29 28 28 28 27 27 26 24 26 26 25 25 24 24 23 23 23 23 22 21 21 22 21 21 21 21 21 21 20 19 19 19 19 19 19 19 19 19 19
26 26 26 28 28 29 29 30 30 29 29 28 27 27 27 27 25 25 25 26 25 25 25 24 23 23 23 23 22 21 21 21 21 20 20 20 20 20 20 19 18 18 18 19 19 19 19 19 19
26 24 23 26 28 27 29 27 27 30 29 28 27 26 25 26 26 26 26 26 26 25 25 24 23 22 22 22 22 21 21 20 20 20 20 20 20 20 19 19 19 19 18 18 19 19 19 19 19
24 24 23 24 27 29 28 23 25 30 30 26 25 24 26 24 24 24 24 24 24 25 25 23 22 22 22 21 21 21 21 20 20 20 20 19 19 19 19 19 19 19 19 18 18 19 19 19 19
19 22 22 24 26 27 26 24 25 29 30 24 23 24 25 24 24 24 23 23 23 23 23 22 22 21 21 21 21 20 20 19 19 19 19 19 20 19 18 18 18 18 18 18 18 18 18 18 18
20 21 22 23 26 24 24 23 25 29 28 23 23 23 23 24 23 23 23 23 22 21 21 21 21 21 21 21 21 20 20 20 20 20 19 19 19 18 20 17 17 17 17 17 17 17 17 17 17
22 22 21 24 25 24 25 25 23 26 27 22 22 22 22 23 22 22 23 22 22 22 21 21 21 21 20 20 20 20 19 19 19 19 19 19 18 18 17 17 17 18 17 17 17 17 17 16 16
21 21 22 24 24 23 23 24 23 23 25 23 22 20 22 22 22 22 23 22 22 22 21 21 20 20 20 19 19 19 18 18 18 18 18 17 18 17 17 17 18 16 16 16 16 16 16 16 16
22 21 23 23 25 25 26 22 25 24 26 22 22 24 22 24 22 22 22 22 21 21 21 21 20 19 19 19 20 18 19 18 17 17 17 16 16 16 16 16 16 16 16 15 15 15 15 14 13
21 23 25 24 24 22 24 20 22 23 23 21 20 20 23 23 21 21 22 22 20 20 20 20 20 19 18 19 19 18 17 17 16 16 16 15 16 15 16 16 16 16 15 15 14 14 14 13 12
23 25 24 25 23 22 22 19 20 21 21 21 19 19 22 22 22 21 21 21 20 20 19 19 19 18 18 18 17 18 17 16 15 15 15 15 14 15 15 15 15 15 14 14 14 14 14 13 11
25 24 23 20 19 21 21 19 23 20 23 21 19 19 18 19 19 19 19 19 18 18 19 18 18 17 17 16 16 17 16 15 14 13 14 14 14 14 14 14 14 14 14 14 14 14 13 13 12
23 20 18 18 18 19 22 20 23 23 22 22 20 19 18 20 19 17 17 17 17 17 17 17 17 17 16 16 16 15 15 14 14 13 13 13 13 14 13 13 13 14 14 13 13 13 12 12 11
21 19 17 18 18 21 20 19 22 23 25 27 24 21 18 17 16 16 16 16 17 16 17 17 17 17 16 16 16 15 14 14 13 13 13 13 13 13 13 13 13 13 13 13 13 13 11 11 11
22 20 20 20 20 17 18 20 23 23 21 22 23 19 17 17 16 15 16 16 16 16 16 16 16 16 15 15 14 13 13 13 13 13 13 13 13 13 13 12 12 12 12 12 12 12 11 10 10
22 22 21 16 18 17 18 19 20 21 22 20 19 18 17 16 15 16 17 16 16 16 15 16 15 14 14 14 13 13 13 13 13 13 13 12 12 12 12 11 11 11 11 11 11 10 10 10 9
21 20 21 19 17 20 20 19 19 20 19 18 18 18 17 16 16 17 17 16 16 15 15 15 15 14 13 13 13 13 13 13 13 12 12 12 12 11 11 11 11 11 10 10 10 10 9 9 8
20 20 18 16 18 16 15 15 18 16 17 18 19 18 17 17 18 17 17 16 15 15 15 15 15 14 14 13 13 13 12 12 12 12 12 11 11 11 10 10 10 10 9 9 9 9 7 7 7
Height
1529 1526 1523 1524 1534 1535 1547 1543 1538 1522 1516 1519 1517 1520 1523 1524 1525 1541 1531 1535 1539 1542 1545 1549 1552 1553 1553 1554 1554 1555 1555 1555 1555 1555 1555 1555 1555 1555 1556 1556 1556 1556 1557 1558 1558 1558 1558 1558 1558
1529 1527 1524 1523 1538 1546 1546 1538 1535 1531 1523 1522 1522 1522 1521 1528 1525 1527 1532 1535 1539 1542 1545 1548 1550 1553 1554 1554 1555 1556 1556 1556 1556 1556 1556 1556 1557 1557 1558 1558 1558 1559 1559 1560 1560 1560 1560 1560 1560
1527 1525 1525 1528 1541 1545 1551 1527 1529 1526 1525 1523 1524 1526 1527 1531 1531 1531 1533 1537 1540 1544 1545 1548 1550 1553 1554 1554 1556 1556 1557 1557 1557 1557 1558 1558 1558 1559 1559 1560 1560 1561 1561 1562 1562 1563 1563 1562 1562
1527 1527 1527 1535 1536 1525 1524 1525 1514 1507 1517 1525 1524 1530 1534 1534 1532 1534 1536 1538 1541 1544 1546 1550 1553 1554 1555 1556 1556 1557 1557 1558 1558 1559 1559 1559 1560 1560 1560 1561 1562 1562 1563 1564 1564 1565 1565 1565 1565
1527 1526 1537 1541 1535 1521 1516 1518 1509 1512 1519 1519 1516 1532 1531 1532 1535 1537 1538 1542 1543 1545 1548 1551 1554 1556 1556 1557 1558 1558 1558 1559 1559 1560 1560 1561 1561 1561 1562 1563 1563 1564 1565 1565 1566 1567 1567 1567 1567
1528 1528 1544 1549 1533 1521 1519 1519 1507 1512 1514 1516 1518 1522 1528 1531 1534 1539 1541 1544 1546 1546 1547 1550 1553 1555 1557 1558 1559 1559 1560 1560 1560 1561 1561 1561 1562 1563 1563 1564 1564 1566 1567 1567 1567 1567 1568 1568 1567
1528 1533 1543 1537 1534 1524 1526 1521 1511 1512 1515 1514 1514 1522 1526 1532 1536 1539 1542 1543 1547 1549 1549 1550 1552 1554 1556 1558 1559 1560 1560 1561 1562 1562 1562 1563 1564 1564 1564 1565 1566 1567 1568 1568 1568 1567 1568 1567 1567
1526 1528 1535 1533 1538 1531 1522 1526 1520 1515 1515 1515 1519 1525 1528 1531 1536 1540 1544 1546 1547 1549 1550 1551 1552 1554 1555 1557 1559 1560 1560 1561 1562 1563 1563 1564 1564 1565 1565 1566 1566 1567 1568 1568 1568 1568 1568 1568 1567
1525 1536 1542 1533 1529 1529 1524 1521 1520 1517 1515 1517 1520 1522 1526 1531 1533 1538 1542 1544 1545 1547 1549 1550 1551 1553 1555 1557 1558 1559 1560 1561 1562 1562 1563 1564 1564 1564 1565 1565 1566 1567 1568 1568 1568 1568 1569 1568 1568
1523 1537 1531 1521 1518 1523 1524 1524 1518 1520 1520 1517 1518 1524 1527 1531 1533 1535 1539 1541 1543 1545 1546 1549 1551 1552 1554 1556 1557 1558 1560 1560 1561 1561 1562 1563 1563 1564 1564 1564 1565 1566 1567 1567 1567 1567 1568 1568 1567
1520 1527 1521 1514 1516 1515 1520 1519 1521 1520 1523 1512 1511 1519 1524 1528 1530 1533 1537 1538 1540 1545 1547 1548 1549 1551 1552 1555 1556 1558 1558 1559 1560 1560 1561 1562 1562 1562 1563 1563 1564 1565 1566 1566 1566 1566 1566 1566 1567
1521 1516 1516 1512 1514 1512 1509 1514 1519 1519 1509 1507 1512 1517 1521 1522 1527 1531 1531 1534 1538 1539 1544 1547 1548 1549 1551 1552 1556 1556 1557 1557 1558 1559 1560 1560 1561 1561 1562 1562 1563 1563 1564 1564 1564 1565 1565 1565 1565
1517 1513 1511 1510 1512 1513 1508 1509 1513 1515 1510 1511 1513 1515 1519 1520 1524 1529 1530 1531 1534 1535 1540 1545 1545 1548 1550 1551 1554 1555 1555 1556 1557 1558 1558 1560 1561 1561 1561 1560 1561 1562 1563 1563 1563 1563 1563 1563 1562
1510 1511 1509 1507 1506 1509 1509 1506 1506 1511 1511 1511 1512 1513 1517 1521 1524 1528 1528 1529 1531 1534 1538 1542 1544 1546 1548 1548 1550 1553 1554 1555 1556 1556 1558 1559 1560 1560 1561 1561 1561 1561 1562 1562 1561 1561 1560 1561 1559
1511 1514 1507 1504 1502 1502 1503 1510 1507 1507 1510 1510 1511 1516 1519 1522 1522 1521 1521 1525 1531 1531 1534 1538 1542 1545 1546 1547 1548 1550 1552 1553 1553 1554 1556 1557 1559 1561 1562 1562 1562 1561 1561 1560 1559 1557 1557 1557 1556
1513 1513 1522 1503 1500 1500 1504 1522 1502 1504 1505 1510 1512 1515 1516 1518 1519 1518 1523 1529 1532 1532 1534 1537 1540 1542 1545 1546 1547 1548 1550 1550 1551 1553 1555 1557 1557 1556 1558 1559 1559 1560 1559 1557 1556 1555 1555 1553 1551
1521 1528 1520 1511 1498 1500 1504 1511 1498 1502 1503 1508 1509 1510 1509 1513 1517 1520 1524 1526 1527 1530 1532 1537 1539 1542 1545 1546 1547 1548 1548 1549 1549 1552 1554 1554 1553 1553 1556 1557 1558 1555 1554 1553 1552 1552 1551 1550 1548
1529 1526 1518 1517 1500 1503 1506 1505 1497 1495 1499 1504 1506 1506 1508 1511 1515 1518 1521 1525 1528 1530 1533 1535 1538 1542 1544 1546 1546 1547 1548 1548 1548 1547 1549 1552 1551 1550 1549 1551 1553 1552 1551 1549 1549 1548 1548 1547 1543
1516 1520 1521 1504 1494 1503 1499 1495 1495 1491 1493 1501 1503 1503 1505 1508 1512 1515 1518 1521 1524 1527 1529 1532 1535 1537 1539 1540 1542 1544 1545 1544 1544 1545 1544 1547 1547 1546 1546 1549 1550 1547 1547 1546 1545 1545 1544 1542 1540
1515 1521 1518 1500 1494 1497 1490 1489 1486 1487 1488 1488 1494 1499 1500 1504 1508 1512 1514 1517 1521 1524 1526 1529 1531 1534 1536 1537 1538 1539 1540 1540 1542 1542 1543 1543 1544 1545 1546 1546 1546 1545 1544 1542 1541 1540 1539 1539 1537
1511 1516 1509 1508 1492 1486 1487 1499 1490 1486 1484 1489 1490 1489 1494 1496 1500 1504 1508 1511 1514 1519 1522 1525 1527 1530 1533 1535 1535 1536 1537 1538 1539 1540 1540 1542 1542 1545 1545 1544 1544 1543 1541 1538 1538 1537 1537 1536 1535
1516 1495 1495 1494 1497 1513 1489 1529 1498 1489 1486 1484 1486 1489 1490 1492 1496 1499 1502 1506 1510 1513 1519 1521 1523 1527 1530 1532 1533 1534 1535 1535 1537 1539 1540 1540 1541 1542 1541 1541 1540 1539 1538 1537 1536 1536 1535 1534 1533
1498 1483 1489 1486 1492 1499 1498 1520 1503 1488 1491 1489 1486 1483 1484 1486 1489 1494 1498 1502 1507 1510 1515 1519 1521 1523 1526 1529 1531 1532 1533 1534 1535 1537 1538 1539 1539 1538 1538 1538 1536 1537 1537 1536 1536 1535 1534 1532 1531
1485 1486 1486 1491 1498 1511 1500 1509 1497 1494 1482 1479 1483 1484 1483 1485 1490 1495 1498 1501 1506 1509 1513 1517 1520 1522 1524 1526 1528 1530 1531 1532 1533 1535 1537 1538 1538 1538 1539 1539 1538 1537 1537 1536 1535 1535 1533 1531 1530
1484 1499 1523 1525 1522 1515 1488 1499 1482 1470 1465 1464 1469 1475 1478 1480 1483 1487 1491 1498 1505 1508 1511 1516 1520 1522 1524 1524 1525 1528 1530 1533 1534 1535 1537 1538 1540 1540 1540 1539 1539 1538 1537 1536 1534 1533 1532 1530 1529
1483 1493 1520 1531 1528 1502 1488 1500 1475 1458 1456 1457 1459 1460 1472 1479 1483 1484 1489 1496 1502 1506 1511 1515 1520 1521 1524 1526 1526 1526 1529 1532 1533 1536 1537 1539 1540 1540 1540 1540 1539 1538 1536 1534 1533 1531 1530 1528 1527
1478 1490 1479 1494 1492 1508 1496 1475 1456 1453 1453 1448 1449 1457 1463 1472 1476 1481 1490 1497 1501 1507 1511 1514 1518 1522 1523 1526 1529 1529 1531 1532 1533 1535 1537 1538 1540 1540 1540 1539 1538 1536 1534 1531 1529 1528 1527 1525 1524
1467 1465 1485 1498 1510 1514 1494 1482 1475 1460 1452 1450 1452 1457 1463 1469 1475 1480 1487 1494 1499 1506 1510 1514 1520 1525 1524 1526 1528 1528 1533 1533 1533 1535 1536 1538 1538 1539 1539 1538 1537 1535 1532 1529 1527 1525 1523 1523 1521
1467 1471 1470 1474 1485 1487 1486 1478 1452 1447 1443 1446 1448 1450 1453 1458 1467 1474 1482 1489 1494 1503 1507 1512 1516 1520 1522 1526 1528 1528 1534 1533 1533 1535 1535 1536 1536 1537 1537 1536 1534 1532 1530 1527 1525 1522 1520 1519 1518
1461 1464 1469 1490 1483 1483 1488 1484 1447 1445 1445 1447 1448 1452 1451 1452 1462 1470 1476 1482 1490 1496 1501 1507 1513 1518 1519 1523 1527 1528 1534 1532 1533 1533 1533 1535 1534 1535 1534 1532 1531 1529 1527 1525 1522 1519 1517 1516 1514
Wind_Speed
16 16 17 8 3 4 4 4 3 6 18 27 23 11 6 6 2 3 26 22 28 27 27 23 19 18 18 18 17 17 18 18 18 19 18 18 17 17 17 17 17 17 18 18 18 18 18 16 15
13 16 10 1 4 4 6 8 15 10 5 21 23 14 14 5 8 19 34 20 27 25 26 24 21 19 18 18 18 17 17 17 17 17 17 17 16 15 15 15 15 15 15 16 16 17 16 15 14
13 14 3 3 3 3 5 15 14 27 30 20 10 17 7 5 19 27 23 32 28 24 25 24 22 20 19 19 17 17 16 16 15 15 15 15 14 14 14 14 13 13 13 13 13 14 14 12 11
12 4 2 3 5 6 5 8 25 24 26 24 16 7 6 3 17 17 30 26 25 23 24 23 20 19 19 18 18 17 16 15 14 14 14 13 12 12 12 12 11 11 10 10 10 9 10 9 8
12 2 3 1 6 6 2 11 5 13 8 15 25 4 4 5 11 22 23 25 24 24 23 22 20 18 18 17 17 16 15 14 13 12 12 11 10 10 10 9 8 8 7 7 6 5 5 5 5
3 2 4 3 5 1 6 12 22 15 17 14 13 8 6 12 16 20 18 21 22 23 24 23 21 19 17 16 16 15 14 13 12 11 10 9 9 8 7 7 6 6 6 5 4 4 4 4 3
3 3 4 3 4 2 4 4 7 12 11 9 14 6 16 22 17 16 13 21 20 18 21 22 22 20 17 16 15 14 13 11 10 9 9 8 7 6 6 5 4 4 4 4 5 4 5 4 3
2 4 3 2 4 6 6 2 13 15 7 15 9 5 10 25 24 16 18 20 17 14 15 17 19 19 18 17 15 14 12 11 10 9 8 7 6 5 4 3 2 2 3 3 4 4 5 6 6
4 3 2 3 4 3 14 6 2 3 16 11 9 7 30 29 28 25 25 24 20 16 16 17 17 18 17 16 15 13 12 11 10 9 8 8 7 6 4 3 1 0 2 2 2 2 4 3 2
3 4 5 6 3 3 15 4 13 8 10 6 14 12 34 36 32 30 30 28 25 20 19 19 18 16 16 15 13 11 10 10 9 9 9 9 8 7 5 5 2 2 3 4 2 2 3 3 2
3 5 5 19 19 23 18 14 12 11 4 19 26 24 34 39 35 34 33 30 26 19 15 16 19 15 13 14 13 10 8 10 10 10 10 10 10 10 10 7 3 1 2 5 1 3 5 6 6
4 8 13 23 19 12 3 20 10 16 18 31 29 26 34 39 39 32 36 35 26 24 19 17 18 17 11 14 14 8 4 10 9 9 10 11 12 11 11 10 5 4 5 9 8 7 9 11 11
5 13 21 27 24 16 7 7 12 24 16 27 29 31 35 36 38 26 35 35 25 27 26 22 19 18 15 14 12 10 6 7 7 4 6 6 7 12 12 10 9 9 10 11 9 10 12 14 13
14 17 24 30 30 8 6 4 4 22 19 26 32 34 35 36 33 24 35 37 27 25 29 27 23 21 16 11 13 12 9 8 9 8 7 6 6 6 13 12 12 11 13 15 15 15 15 13 13
12 6 9 10 8 6 8 4 5 11 23 28 30 24 15 20 20 32 40 45 30 32 30 29 26 23 18 13 15 17 13 11 11 11 11 9 8 9 9 13 18 18 18 17 15 15 17 16 15
5 1 4 8 3 5 7 10 10 15 19 24 23 29 28 34 28 19 28 28 29 26 28 31 31 25 21 18 17 17 19 13 10 10 12 13 12 16 12 15 15 18 21 20 19 19 18 20 21
5 5 7 9 6 4 6 11 11 15 26 25 31 35 36 34 31 32 31 26 23 28 30 32 33 29 27 19 18 19 18 16 13 13 15 13 18 15 14 19 18 18 21 22 19 18 20 22 24
4 4 5 7 6 5 7 12 6 17 30 30 30 34 36 36 31 30 31 28 28 32 32 30 33 31 28 24 16 10 21 21 21 20 19 15 18 15 20 19 20 15 18 19 21 20 21 21 24
4 5 10 15 12 5 15 19 11 22 27 28 28 35 36 34 29 27 26 25 26 25 22 19 18 20 20 20 15 12 11 16 17 18 19 16 14 15 16 20 20 19 20 18 21 22 21 22 24
7 9 16 16 8 6 4 16 9 9 16 37 34 32 37 33 30 28 26 24 22 20 19 19 18 16 16 18 16 18 17 17 16 18 17 13 13 17 20 21 20 17 19 19 21 21 21 19 18
11 7 15 16 6 3 3 8 1 8 12 27 33 42 38 37 35 30 27 24 23 20 20 20 21 19 16 15 21 18 18 16 13 13 13 11 12 10 9 9 11 16 18 18 17 16 17 16 15
10 11 15 9 0 4 5 4 5 5 10 16 27 32 40 36 31 27 24 24 22 20 21 21 20 17 15 17 17 18 17 15 11 8 8 6 6 11 13 14 13 13 15 14 14 13 14 15 16
13 17 13 9 4 2 1 4 8 4 8 8 19 34 42 40 36 30 25 23 20 19 17 16 18 19 19 18 15 18 17 13 10 8 7 7 2 2 4 5 5 7 8 9 10 11 11 11 10
11 6 5 3 2 8 7 7 8 5 8 6 16 24 30 36 31 27 26 25 22 18 17 16 15 14 13 12 11 11 11 12 12 9 7 7 7 8 8 9 9 10 10 11 12 12 11 10 9
6 5 4 4 3 8 6 6 9 6 10 10 19 30 39 40 38 36 34 29 23 23 22 20 17 17 15 14 12 11 10 11 10 9 7 7 8 9 10 10 10 11 12 13 13 13 12 11 9
8 8 5 9 5 10 6 6 10 11 19 23 30 45 37 35 38 39 36 31 28 27 25 22 18 18 16 14 13 13 12 11 11 8 4 5 6 8 9 10 12 13 15 17 16 15 14 13 12
9 5 8 9 2 1 5 8 6 4 7 18 19 36 37 36 42 44 36 30 29 27 24 21 18 16 15 13 12 13 12 10 8 8 6 4 4 4 5 9 13 15 17 18 18 15 14 13 13
8 5 7 1 4 11 4 6 7 7 6 3 12 28 33 35 40 42 36 31 28 25 23 18 14 12 14 14 14 13 10 9 10 8 7 6 3 2 6 10 14 17 18 17 17 17 16 15 15
4 3 3 3 5 11 16 8 7 11 11 15 17 34 40 45 47 45 38 33 30 29 22 20 15 15 15 15 15 12 10 12 11 9 6 3 2 5 8 12 16 19 16 16 17 17 18 16 16
8 9 6 3 7 2 3 5 1 9 6 4 13 24 37 47 49 43 41 39 37 32 26 17 15 17 16 17 14 12 12 7 6 6 4 5 6 9 12 15 19 19 17 17 17 18 18 18 18
Wind_Direction
343 337 322 314 57 82 159 23 360 1 64 65 80 96 89 75 181 183 147 154 167 155 154 158 157 148 138 130 121 114 110 110 111 112 111 112 112 111 110 110 109 108 107 107 107 108 111 113 110
335 331 322 328 69 26 48 127 53 21 64 79 63 49 57 77 101 139 157 160 159 158 155 158 157 151 140 132 125 121 116 115 115 114 114 114 115 115 115 116 114 112 111 110 110 109 110 112 107
336 333 301 93 109 140 116 122 114 68 48 55 61 37 36 97 124 144 166 159 155 159 156 158 156 152 143 136 132 128 124 122 120 119 116 116 117 119 119 118 117 115 114 114 116 115 114 115 111
340 337 335 73 301 264 134 179 137 111 83 67 79 44 31 342 152 159 155 157 158 159 157 156 157 153 146 143 140 136 131 129 128 126 124 122 121 121 120 118 116 114 114 113 112 112 112 113 115
343 329 38 92 265 306 351 183 163 80 109 106 106 149 70 137 180 155 156 162 162 158 156 156 158 156 151 149 147 144 141 139 136 134 131 128 126 125 121 118 115 109 105 101 99 93 90 101 115
350 45 26 328 285 331 351 183 114 124 142 130 107 127 116 140 151 151 159 166 168 163 159 159 160 159 157 156 154 151 148 146 144 142 140 137 135 133 127 121 113 103 92 84 78 75 75 84 105
141 89 215 253 297 28 210 214 129 151 149 175 153 98 131 162 161 160 151 162 169 167 164 163 163 163 162 163 161 158 156 155 155 153 154 153 150 148 137 129 116 98 84 70 61 62 71 78 78
302 100 348 263 329 328 137 240 102 112 195 159 138 126 155 171 171 173 165 156 156 165 178 175 170 170 169 170 169 167 167 168 169 171 172 170 170 168 160 152 131 94 73 72 72 71 85 89 77
239 57 277 271 48 13 142 147 320 168 152 167 178 149 163 170 179 181 178 176 172 175 187 189 183 178 177 177 176 177 177 179 184 188 189 190 189 187 188 191 181 37 4 21 62 122 88 73 61
136 131 250 208 252 173 200 50 145 143 177 235 196 149 153 171 182 190 188 185 183 179 179 193 190 188 185 185 184 183 189 193 197 201 205 207 205 202 196 187 200 329 346 353 320 273 261 301 300
206 202 229 284 289 296 190 155 182 164 242 191 187 167 165 172 187 193 195 197 192 185 187 184 194 193 193 197 186 181 198 209 211 214 217 220 221 222 221 209 194 225 317 344 320 337 286 294 299
256 266 259 280 292 272 305 160 184 194 192 176 172 172 174 183 181 193 197 196 196 197 196 190 183 183 183 189 180 185 213 215 217 225 228 231 236 225 231 232 229 249 281 308 283 288 295 297 296
197 267 280 283 288 251 233 148 180 217 186 187 179 179 189 194 196 187 208 206 203 204 194 197 190 188 187 185 196 199 200 201 205 207 206 220 254 251 247 258 262 265 281 295 288 299 291 309 303
282 292 290 294 287 223 201 247 121 207 182 180 186 184 191 202 203 202 207 211 206 218 208 199 202 195 194 210 212 208 213 212 222 239 240 248 271 277 252 258 269 274 277 281 285 288 294 303 295
301 300 308 283 266 213 193 326 224 197 199 189 187 196 192 227 230 216 209 211 213 207 197 202 206 203 202 209 209 213 218 229 237 245 251 259 275 284 275 272 264 262 271 277 280 286 293 296 288
342 99 291 276 208 256 159 253 258 244 176 154 155 157 153 138 138 146 184 194 189 190 199 204 205 200 205 211 213 226 219 223 226 236 255 256 264 271 259 279 295 283 265 265 269 273 279 290 295
9 247 268 297 228 204 157 247 247 191 173 144 136 134 135 138 137 140 148 145 160 187 199 199 202 202 203 209 212 222 214 212 232 249 264 270 278 272 257 275 278 272 261 264 266 277 280 282 287
245 298 303 254 273 167 249 252 251 206 189 153 147 142 143 146 151 153 158 163 151 158 177 184 197 204 211 215 224 238 227 229 237 248 251 250 262 234 261 254 262 271 263 261 267 276 281 286 288
256 254 264 269 267 187 237 228 204 189 170 156 158 158 158 156 158 165 168 169 173 177 183 186 188 192 198 211 216 228 225 232 238 249 250 252 251 265 243 241 249 261 261 269 276 278 284 284 289
262 263 275 284 252 183 267 218 200 185 186 168 168 164 167 165 170 178 183 188 192 196 201 211 215 207 210 206 217 221 226 233 239 249 258 257 226 216 224 239 254 255 267 274 278 283 289 300 316
255 237 261 249 257 319 74 325 260 235 208 168 178 181 179 180 180 183 187 194 199 206 212 216 220 228 217 227 234 223 230 234 227 219 222 207 206 212 220 249 286 285 273 285 291 298 307 314 322
256 235 248 263 321 245 118 256 292 249 236 168 180 181 184 188 188 181 182 191 198 203 213 220 224 219 221 229 239 243 232 214 212 213 229 256 270 278 287 287 289 293 298 304 316 321 319 317 318
249 267 251 238 245 115 180 115 261 299 217 214 188 188 191 193 187 179 176 178 180 186 198 206 214 218 222 229 229 233 219 210 199 223 248 250 267 317 332 335 345 358 358 356 356 357 355 350 343
259 276 303 32 106 263 242 160 252 211 213 198 205 200 188 185 179 173 168 170 166 165 169 173 180 181 181 186 188 201 196 172 161 145 131 101 74 63 64 56 45 29 14 6 360 357 353 352 354
211 70 315 309 289 240 232 262 241 246 234 197 182 190 192 189 179 173 169 166 164 162 159 158 161 155 161 169 163 158 159 152 150 138 115 79 75 84 70 49 34 19 7 354 346 340 337 336 329
251 171 175 238 232 256 206 240 262 236 248 253 211 198 183 175 174 173 170 167 167 163 159 157 160 156 159 162 156 156 154 152 145 133 111 100 84 61 47 30 16 3 352 342 335 331 330 317 309
265 219 204 239 224 227 206 274 293 276 301 280 192 171 173 167 170 169 168 170 166 164 163 163 166 168 165 166 161 148 147 151 153 138 131 117 101 71 27 3 354 348 341 334 329 330 327 318 307
182 205 273 21 209 258 232 231 237 249 244 127 143 166 166 163 163 169 172 168 169 171 164 166 168 169 162 164 167 159 163 166 158 160 162 155 149 0 346 343 342 338 333 326 324 321 318 313 302
280 248 259 253 179 248 258 251 217 231 208 179 177 174 168 164 167 175 175 175 174 172 172 169 167 169 167 176 177 171 192 167 163 172 177 206 288 316 324 334 337 334 331 324 321 317 314 317 312
221 247 202 192 252 194 171 267 337 56 57 75 161 171 169 167 175 179 177 179 175 174 174 176 182 180 174 168 169 166 189 195 206 207 224 261 293 309 320 330 335 333 329 326 322 315 313 314 313